Location: Gro� Glienicke
(52.4675°N, 13.1079°E)
Time: 02:34:37
(UTC+00:00)

Thor Agena Rocket - Pass Details

Date: 06 July 2020
Orbit: 759 x 808 km, 99.0° (Epoch: 04 August)

Event Time Altitude Azimuth Distance (km) Brightness Sun altitude
Rises 21:50:17 0° 18° (NNE) 3,272 7.7 -12.9°
Reaches altitude 10° 21:52:39 10° 21° (NNE) 2,333 6.8 -13.0°
Maximum altitude 21:57:45 63° 103° (ESE) 856 3.6 -13.2°
Enters shadow 22:01:28 18° 181° (S) 1,800 4.8 -13.4°
